Flag for Germany Weather past 2 weeks in Erlangen, Bavaria, Germany

Now
34 °F

Clear.


Feels Like: 34 °F
Forecast: 31 / 45 °F
Wind: 1 mph from North

Location: Nuernberg

Current Time: Mar 6, 2015 at 12:13:42 AM

Latest Report: Mar 5, 2015 at 11:20 PM


Visibility: 10 mi

Pressure: 30.60 "Hg

Humidity: 81%

Dew point: 28 °F

Location of ErlangenLocation

Historic Weather in Erlangen — Graph

°F

Erlangen temperature yesterday

Maximum temperature yesterday: 43 °F (at 1:20 PM)
Minimum temperature yesterday: 34 °F (at 12:20 AM)
Average temperature yesterday: 38 °F

Past Weeks' High & Low Weather Summary

 TemperatureHumidityPressure
High52 °F (Feb 20, 2:20 PM)100% (Feb 19, 1:50 AM)30.63 "Hg (Feb 19, 1:50 AM)
Low21 °F (Feb 20, 6:20 AM)43% (Mar 3, 4:20 PM)29.47 "Hg (Feb 21, 1:20 PM)
Average36 °F81%29.98 "Hg
* Reported Feb 18 10:20 PM — Mar 5 10:50 PM, Erlangen, Weather by CustomWeather, © 2015

Note: Actual official high and low records may vary slightly from our data, if they occured in-between our weather recording intervals... More about our weather records

Advertising

Erlangen weather history for previous 24 hours

 ConditionsComfort  
Time TempWeatherWind HumidityBarometerVisibility
10:50 PM
Thu, Mar 5
34 °FClear.1 mph81%30.60 "Hg10 mi
10:20 PM36 °FClear.1 mph75%30.60 "Hg10 mi
9:50 PM34 °FClear.1 mph75%30.60 "Hg10 mi
9:20 PM36 °FClear.1 mph70%30.57 "Hg10 mi
8:50 PM37 °FClear.1 mph70%30.57 "Hg10 mi
8:20 PM37 °FPassing clouds.3 mph70%30.57 "HgN/A
7:50 PM37 °FClear.2 mph70%30.57 "Hg10 mi
7:20 PM39 °FPassing clouds.2 mph65%30.57 "HgN/A
6:50 PM39 °FPassing clouds.3 mph61%30.57 "HgN/A
6:20 PM41 °FPartly cloudy.3 mph57%30.54 "HgN/A
5:50 PM41 °FScattered clouds.5 mph57%30.54 "HgN/A
5:20 PM41 °FScattered clouds.6 mph57%30.54 "HgN/A
4:50 PM41 °FBroken clouds.6 mph53%30.54 "HgN/A
4:20 PM43 °FBroken clouds.6 mph53%30.54 "HgN/A
3:50 PM43 °FBroken clouds.6 mph49%30.54 "HgN/A
3:20 PM43 °FBroken clouds.8 mph46%30.54 "HgN/A
2:50 PM43 °FBroken clouds.8 mph49%30.51 "HgN/A
2:20 PM43 °FBroken clouds.7 mph46%30.51 "HgN/A
1:50 PM43 °FBroken clouds.8 mph46%30.51 "HgN/A
1:20 PM43 °FBroken clouds.7 mph53%30.51 "HgN/A
12:50 PM41 °FBroken clouds.7 mph53%30.54 "HgN/A
12:20 PM41 °FBroken clouds.7 mph53%30.54 "HgN/A
11:50 AM41 °FBroken clouds.7 mph57%30.54 "HgN/A
11:20 AM39 °FBroken clouds.8 mph56%30.54 "HgN/A
10:50 AM37 °FPartly sunny.9 mph65%30.54 "HgN/A
10:20 AM37 °FPartly sunny.9 mph70%30.51 "HgN/A
9:50 AM37 °FBroken clouds.9 mph65%30.51 "HgN/A
9:20 AM37 °FBroken clouds.8 mph70%30.51 "HgN/A
8:50 AM37 °FPartly sunny.5 mph70%30.48 "HgN/A
8:20 AM36 °FPartly sunny.7 mph81%30.48 "HgN/A
7:50 AM36 °FBroken clouds.5 mph81%30.48 "HgN/A
7:20 AM36 °FPartly sunny.6 mph81%30.45 "HgN/A
6:50 AM36 °FLight rain. Passing clouds.6 mph87%30.45 "HgN/A
6:20 AM36 °FPartly cloudy.3 mph87%30.45 "HgN/A
5:20 AM36 °FPassing clouds.6 mph87%30.42 "HgN/A
4:20 AM36 °FPassing clouds.8 mph87%30.42 "HgN/A
3:50 AM36 °FPassing clouds.10 mph87%30.39 "HgN/A
2:50 AM36 °FLight snow. Passing clouds.8 mph87%30.39 "HgN/A
2:20 AM36 °FPassing clouds.6 mph87%30.39 "HgN/A
1:50 AM36 °FPassing clouds.7 mph87%30.39 "HgN/A
1:20 AM36 °FPassing clouds.6 mph87%30.39 "HgN/A
12:50 AM34 °FPassing clouds.5 mph93%30.39 "HgN/A
12:20 AM34 °FPassing clouds.7 mph87%30.36 "HgN/A
Weather by CustomWeather, © 2015

See weather overviewHow to use our weather pages